Weather History for KIFP - December, 2012

Change the Weather History Date:

Wednesday, December 12, 2012

  Actual Average Record
Temperature  
Mean Temperature 52 °F -  
Max Temperature 62 °F 62 °F 75 °F (2010)
Min Temperature 41 °F 46 °F 38 °F (1992)
Degree Days  
Heating Degree Days 14    
Growing Degree Days 2 (Base 50)    
Moisture  
Dew Point 23 °F    
Average Humidity 33    
Maximum Humidity 61    
Minimum Humidity 18    
Precipitation  
Precipitation 0.00 in - - ()
Sea Level Pressure  
Sea Level Pressure 29.90 in    
Wind  
Wind Speed 2 mph (SSE)    
Max Wind Speed 8 mph    
Max Gust Speed -    
Visibility 10 miles    
Events      
Averages and records for this station are not official NWS values.
T = Trace of Precipitation, MM = Missing Value Source: NWS Daily Summary

Daily Weather History Graph

Daily Weather History Graph

Search for Another Location

Airport or City:

Trip Planner

Search our weather history database for the weather conditions in past years. The results will help you decide how hot, cold, wet, or windy it might be!

Date:

Astronomy

Dec. 12, 2012 Rise Set
Actual Time 7:37 AM MST 5:26 PM MST
Civil Twilight 7:09 AM MST 5:55 PM MST
Nautical Twilight 6:37 AM MST 6:26 PM MST
Astronomical Twilight 6:06 AM MST 6:57 PM MST
Moon 6:47 AM MST (12/12) 5:07 PM MST (12/12)
Length of Visible Light 10h 45m
Length of Day
9h 49m
Waning Crescent, 0% of the Moon is Illuminated
Dec 12
Waning Crescent
Dec 13
New
Dec 19
First Quarter
Dec 28
Full
Jan 4
Last Quarter

Hourly Weather History & Observations

Time (MST) Temp. Windchill Dew Point Humidity Pressure Visibility Wind Dir Wind Speed Gust Speed Precip Events Conditions
12:15 AM 48.2 °F - 23.0 °F 37% 29.98 in 10.0 mi Calm Calm - N/A   Clear
12:55 AM 46.4 °F - 24.8 °F 43% 29.98 in 10.0 mi Calm Calm - N/A   Clear
1:15 AM 46.4 °F 44.3 °F 23.0 °F 40% 29.97 in 10.0 mi SE 4.6 mph - N/A   Clear
1:35 AM 46.4 °F - 24.8 °F 43% 29.97 in 10.0 mi Calm Calm - N/A   Clear
1:55 AM 46.4 °F - 28.4 °F 50% 29.96 in 10.0 mi Calm Calm - N/A   Clear
2:15 AM 44.6 °F - 28.4 °F 53% 29.97 in 10.0 mi Calm Calm - N/A   Clear
2:55 AM 46.4 °F - 23.0 °F 40% 29.95 in 10.0 mi Calm Calm - N/A   Clear
3:15 AM 44.6 °F - 28.4 °F 53% 29.95 in 10.0 mi Calm Calm - N/A   Clear
3:35 AM 42.8 °F - 24.8 °F 49% 29.95 in 10.0 mi Calm Calm - N/A   Clear
3:55 AM 42.8 °F 38.6 °F 23.0 °F 46% 29.94 in 10.0 mi ESE 6.9 mph - N/A   Clear
4:15 AM 46.4 °F 42.9 °F 21.2 °F 37% 29.94 in 10.0 mi ESE 6.9 mph - N/A   Clear
4:35 AM 46.4 °F 45.2 °F 21.2 °F 37% 29.93 in 10.0 mi East 3.5 mph - N/A   Clear
4:55 AM 46.4 °F - 23.0 °F 40% 29.92 in 10.0 mi Calm Calm - N/A   Clear
5:15 AM 44.6 °F 42.2 °F 26.6 °F 49% 29.92 in 10.0 mi SSW 4.6 mph - N/A   Clear
5:35 AM 44.6 °F 43.1 °F 23.0 °F 43% 29.92 in 10.0 mi South 3.5 mph - N/A   Clear
5:55 AM 44.6 °F - 21.2 °F 39% 29.93 in 10.0 mi Calm Calm - N/A   Clear
6:35 AM 46.4 °F 43.5 °F 21.2 °F 37% 29.94 in 10.0 mi SSE 5.8 mph - N/A   Clear
6:55 AM 48.2 °F - 19.4 °F 32% 29.94 in 10.0 mi SE 6.9 mph - N/A   Clear
7:15 AM 44.6 °F 43.1 °F 24.8 °F 46% 29.94 in 10.0 mi NW 3.5 mph - N/A   Clear
7:35 AM 42.8 °F 41.1 °F 24.8 °F 49% 29.95 in 10.0 mi South 3.5 mph - N/A   Clear
7:55 AM 42.8 °F 41.1 °F 24.8 °F 49% 29.95 in 10.0 mi SSW 3.5 mph - N/A   Clear
8:15 AM 41.0 °F 39.0 °F 28.4 °F 61% 29.95 in 10.0 mi SSW 3.5 mph - N/A   Clear
8:35 AM 41.0 °F - 26.6 °F 57% 29.96 in 10.0 mi Calm Calm - N/A   Clear
8:55 AM 42.8 °F - 24.8 °F 49% 29.96 in 10.0 mi Calm Calm - N/A   Clear
9:15 AM 44.6 °F - 23.0 °F 43% 29.97 in 10.0 mi Calm Calm - N/A   Clear
10:15 AM 53.6 °F - 23.0 °F 30% 29.98 in 10.0 mi Calm Calm - N/A   Clear
10:35 AM 53.6 °F - 24.8 °F 33% 29.98 in 10.0 mi SSE 4.6 mph - N/A   Clear
10:55 AM 50.0 °F - 30.2 °F 47% 29.98 in 10.0 mi Calm Calm - N/A   Clear
11:15 AM 53.6 °F - 28.4 °F 38% 29.97 in 10.0 mi Calm Calm - N/A   Clear
11:35 AM 53.6 °F - 24.8 °F 33% 29.97 in 10.0 mi South 3.5 mph - N/A   Clear
11:55 AM 55.4 °F - 24.8 °F 31% 29.96 in 10.0 mi SSW 3.5 mph - N/A   Clear
12:15 PM 57.2 °F - 23.0 °F 27% 29.95 in 10.0 mi South 4.6 mph - N/A   Clear
12:35 PM 57.2 °F - 19.4 °F 23% 29.94 in 10.0 mi South 6.9 mph - N/A   Clear
12:55 PM 59.0 °F - 19.4 °F 22% 29.92 in 10.0 mi South 4.6 mph - N/A   Clear
1:15 PM 59.0 °F - 19.4 °F 22% 29.92 in 10.0 mi South 5.8 mph - N/A   Clear
1:35 PM 60.8 °F - 19.4 °F 20% 29.91 in 10.0 mi SSE 3.5 mph - N/A   Clear
1:55 PM 60.8 °F - 19.4 °F 20% 29.90 in 10.0 mi SSW 3.5 mph - N/A   Clear
2:15 PM 62.6 °F - 17.6 °F 18% 29.89 in 10.0 mi South 4.6 mph - N/A   Clear
2:35 PM 62.6 °F - 19.4 °F 19% 29.88 in 10.0 mi Calm Calm - N/A   Clear
2:55 PM 62.6 °F - 19.4 °F 19% 29.87 in 10.0 mi South 3.5 mph - N/A   Clear
3:15 PM 62.6 °F - 19.4 °F 19% 29.86 in 10.0 mi SSE 4.6 mph - N/A   Clear
3:35 PM 62.6 °F - 19.4 °F 19% 29.86 in 10.0 mi Calm Calm - N/A   Clear
3:55 PM 62.6 °F - 19.4 °F 19% 29.85 in 10.0 mi Calm Calm - N/A   Clear
4:15 PM 60.8 °F - 21.2 °F 22% 29.85 in 10.0 mi Calm Calm - N/A   Clear
4:35 PM 60.8 °F - 23.0 °F 23% 29.84 in 10.0 mi East 5.8 mph - N/A   Clear
4:55 PM 59.0 °F - 23.0 °F 25% 29.84 in 10.0 mi East 3.5 mph - N/A   Clear
5:35 PM 57.2 °F - 24.8 °F 29% 29.84 in 10.0 mi ESE 4.6 mph - N/A   Clear
5:55 PM 57.2 °F - 23.0 °F 27% 29.84 in 10.0 mi ESE 3.5 mph - N/A   Clear
6:15 PM 57.2 °F - 23.0 °F 27% 29.84 in 10.0 mi East 3.5 mph - N/A   Clear
6:35 PM 55.4 °F - 23.0 °F 29% 29.84 in 10.0 mi East 6.9 mph - N/A   Clear
6:55 PM 57.2 °F - 21.2 °F 25% 29.84 in 10.0 mi ESE 6.9 mph - N/A   Clear
7:15 PM 57.2 °F - 21.2 °F 25% 29.84 in 10.0 mi Calm Calm - N/A   Clear
7:35 PM 57.2 °F - 21.2 °F 25% 29.84 in 10.0 mi Calm Calm - N/A   Clear
7:55 PM 53.6 °F - 24.8 °F 33% 29.84 in 10.0 mi Calm Calm - N/A   Clear
8:15 PM 55.4 °F - 23.0 °F 29% 29.84 in 10.0 mi Calm Calm - N/A   Clear
8:35 PM 55.4 °F - 23.0 °F 29% 29.84 in 10.0 mi Calm Calm - N/A   Clear
8:55 PM 53.6 °F - 23.0 °F 30% 29.83 in 10.0 mi Calm Calm - N/A   Clear
9:15 PM 53.6 °F - 23.0 °F 30% 29.84 in 10.0 mi Calm Calm - N/A   Clear
9:35 PM 55.4 °F - 23.0 °F 29% 29.84 in 10.0 mi Calm Calm - N/A   Clear
9:55 PM 53.6 °F - 23.0 °F 30% 29.84 in 10.0 mi Calm Calm - N/A   Clear
10:15 PM 53.6 °F - 19.4 °F 26% 29.85 in 10.0 mi Calm Calm - N/A   Clear
10:35 PM 53.6 °F - 26.6 °F 35% 29.85 in 10.0 mi Calm Calm - N/A   Clear
10:55 PM 53.6 °F - 19.4 °F 26% 29.85 in 10.0 mi Calm Calm - N/A   Clear
11:15 PM 53.6 °F - 19.4 °F 26% 29.85 in 10.0 mi Calm Calm - N/A   Clear
11:35 PM 55.4 °F - 17.6 °F 23% 29.85 in 10.0 mi SSE 8.1 mph - N/A   Clear
11:55 PM 55.4 °F - 17.6 °F 23% 29.85 in 10.0 mi SSE 8.1 mph - N/A   Clear